Find Starlink 32400

NORAD ID: 61669 Int'l Des: 2024-193 Owner: SPXS Country: US Constellation: starlink operational
LEOCIRCULAR

Live Position

Loading 3D Globe...

About Starlink 32400

Description loading...

Upcoming Passes

Passes for default location (London). Set your location on the main map for personalized predictions.

Altitude History

Loading altitude history...

Two-Line Element Set

1 61669U 24193J 26123.46092566 .00000908 00000-0 42775-4 0 9995
2 61669 53.1609 194.3793 0001142 84.5178 275.5953 15.30197182 84949
Epoch: May 3, 2026 • Age: 7 hours

Current Status

Altitude 475.2 km
Velocity 7.63 km/s
Sub-Earth Point 15.31°N, 130.86°W
Launch Date Oct 26, 2024
Age 1.5 years
Type internet

Technical Details

Classification Payload
Mass 730.00 kg
Dry Mass 700.00 kg
Total Mass 730.00 kg
Length 0.30 m
Diameter 4.10 m
Span 29.00 m
Shape Box + pan
Manufacturer SPXS
Bus Type Starlink V2M
Phase Status In Orbit
Owner/State SPXS/US

Most Searched